Startseite
Über Mich
AHP4
Galerie
Sehschlangen
Tourenbuch
Bookmarks
Elektronik
Bewertung
Geschichten
[Tagesmessung] [Jahreswerte] [Information]

Messwerte vom 24.04.2022

Die letzten Messwerte von 23:58:46 Uhr:
KategorieMesswert
Temperatur [°C]7
Luftdruck [mBar]991
Sonneneinstrahlung0
Wind [km/h]0 aus Ost
Niederschlag [l/m²]0
rel.Luftfeucht.88.6%
CO2 [ppm]439

Diagramme
Messwerte vom 24.04.2022
Tagesaggregation
KategorieMinimumMaximumSchnittSumme
Temperatur [°C]41610.2417
Luftdruck [mBar]987991989.4188
Sonneneinstrahlung246123.1771
Wind [km/h]23
rF [%]52.689.969.57
Niederschlag [l/m²]0
CO2 [ppm]413453430.3
Einordnung alsVegetationstag

Messungen an benachbarten Tagen: Zur Jahresaggregation 2022
Tabelle aller Messwerte
UhrzeitTemperatur [°C]Luftdruck [mBar]SonneWind [km/h]RichtungRegen [l/m²]rF [%]CO2 [ppm]
00:01:48 9 991 0 5 NW 0 66.1 419
00:04:47 9 991 0 6 NO 0 66.5 416
00:07:44 9 991 0 5 N 0 67.1 419
00:10:47 9 991 0 6 N 0 67.1 424
00:13:47 9 991 0 4 NO 0 67.1 425
00:16:47 9 991 0 7 NO 0 67.2 424
00:19:46 9 991 0 4 NW 0 67.3 424
00:22:47 9 991 0 5 NW 0 67.4 418
00:25:46 9 991 0 5 N 0 67.5 419
00:28:47 9 991 0 2 NO 0 67.7 422
00:31:45 9 991 0 4 N 0 68.1 423
00:34:44 9 991 0 4 0 68.2 416
00:37:46 8 991 0 3 O 0 68.4 422
00:40:45 8 991 0 6 NO 0 68.6 413
00:43:47 8 991 0 5 O 0 69.4 422
00:46:45 8 991 0 4 NW 0 69.9 424
00:49:50 8 991 0 3 NW 0 70.3 425
00:52:45 8 991 0 2 O 0 70.5 422
00:55:47 8 991 0 3 N 0 70.7 428
00:58:45 8 991 0 3 O 0 70.8 425
01:01:46 8 991 0 5 NO 0 70.8 430
01:04:47 8 991 0 3 NO 0 71 423
01:07:44 8 991 0 6 0 71 422
01:10:47 8 991 0 2 N 0 71 419
01:13:46 8 991 0 2 N 0 70.9 425
01:16:46 8 991 0 6 O 0 70.9 431
01:19:45 8 991 0 7 N 0 71.1 427
01:22:44 8 991 0 4 NO 0 71.2 424
01:25:44 8 991 0 2 SW 0 71.3 421
01:28:46 8 991 0 9 NO 0 71 421
01:31:47 8 991 0 3 SO 0 70.9 422
01:34:44 8 991 0 3 NO 0 70.8 418
01:37:47 8 991 0 2 NW 0 71.2 427
01:40:45 8 991 0 1 N 0 71.5 430
01:43:44 8 991 0 4 NO 0 71.5 433
01:46:45 8 991 0 5 NW 0 71.7 419
01:49:45 8 991 0 9 W 0 71.7 424
01:52:44 8 991 0 3 N 0 71.8 427
01:55:46 7 991 0 3 N 0 72 425
01:58:45 7 991 0 2 N 0 72.2 428
02:01:46 7 991 0 5 SO 0 72.7 415
02:04:47 7 991 0 5 NO 0 72.9 419
02:07:48 7 991 0 9 O 0 73 424
02:10:47 7 991 0 6 O 0 73 428
02:13:45 7 991 0 4 SO 0 73 433
02:16:46 7 990 0 3 N 0 73 439
02:19:44 7 991 0 1 N 0 73.2 436
02:22:44 7 991 0 4 N 0 73.4 431
02:25:46 7 991 0 5 SW 0 73.7 418
02:28:45 7 991 0 3 NO 0 74.1 421
02:31:48 7 991 0 2 SO 0 74.5 421
02:34:44 7 991 0 4 O 0 74.6 424
02:37:44 7 991 0 4 N 0 74.7 421
02:40:46 7 991 0 5 N 0 74.8 421
02:43:47 7 990 0 3 N 0 75.3 424
02:46:46 7 991 0 4 0 76 427
02:49:45 6 991 0 6 SW 0 76.3 430
02:52:47 6 990 0 5 NO 0 77 427
02:55:47 6 990 0 7 N 0 77.7 433
02:58:47 6 990 0 4 SO 0 77.9 433
03:01:47 6 991 0 8 N 0 78.4 433
03:04:49 6 990 0 12 O 0 78.6 430
03:07:47 6 990 0 6 NW 0 78.9 430
03:10:46 6 991 0 4 N 0 78.8 427
03:13:46 6 990 0 3 0 78.9 428
03:16:47 6 990 0 5 NO 0 79.4 431
03:19:46 6 990 0 2 NO 0 79.5 434
03:22:45 6 990 0 2 O 0 79.5 430
03:25:45 6 991 0 6 N 0 79.7 430
03:28:48 6 990 0 17 NW 0 80.1 430
03:31:47 6 990 0 2 O 0 80.4 430
03:34:45 6 990 0 3 O 0 80.6 431
03:37:52 6 990 0 9 NW 0 80.8 430
03:40:45 6 991 0 5 N 0 80.9 428
03:43:44 6 990 0 5 O 0 80.9 430
03:46:46 6 991 0 5 NO 0 81.1 428
03:49:47 6 990 0 3 NO 0 81.2 439
03:52:46 6 990 0 3 NO 0 81.3 437
03:55:47 6 989 0 7 NW 0 81.6 437
03:58:48 6 990 0 9 NW 0 81.8 436
04:01:48 6 990 0 8 NO 0 81.8 442
04:04:49 6 990 0 4 NO 0 82 439
04:07:47 6 990 0 2 NW 0 82.1 440
04:10:48 6 989 0 4 N 0 82.3 436
04:13:46 6 990 0 2 N 0 82.2 436
04:16:44 6 990 0 4 0 82.1 436
04:19:46 6 990 0 3 O 0 82.1 440
04:22:47 5 990 0 6 N 0 82.1 439
04:25:43 5 990 0 7 O 0 82.4 433
04:28:47 5 990 0 5 O 0 82.9 436
04:31:45 5 990 0 5 N 0 83 430
04:34:46 5 990 0 15 N 0 83.3 433
04:37:45 5 990 0 4 S 0 83.7 433
04:40:47 5 990 0 5 O 0 83.8 443
04:43:46 5 990 0 2 N 0 84.1 434
04:46:46 5 990 0 3 N 0 84.3 440
04:49:45 5 990 0 4 O 0 84.3 442
04:52:45 5 990 0 7 N 0 84.5 451
04:55:47 5 990 0 5 O 0 84.6 443
04:58:47 5 990 0 3 O 0 84.8 442
05:01:48 5 990 0 3 SO 0 85 439
05:04:46 5 990 0 5 S 0 85.1 442
05:07:45 5 989 0 2 NO 0 85.3 436
05:10:46 5 990 0 8 NW 0 85.5 444
05:13:44 5 990 0 11 N 0 85.6 442
05:16:46 5 989 0 5 NO 0 86.2 442
05:19:46 5 990 0 4 S 0 86.4 439
05:22:47 5 990 0 2 NO 0 86.5 442
05:25:46 5 990 0 4 NW 0 86.5 444
05:28:45 5 990 0 3 N 0 86.5 439
05:31:47 5 990 0 2 SO 0 86.7 439
05:34:48 5 990 3 2 SO 0 87.2 437
05:37:45 5 990 5 5 NW 0 87.4 445
05:40:43 5 989 8 1 O 0 87.7 443
05:43:45 4 990 13 3 O 0 88 445
05:46:47 4 989 19 0 O 0 88.1 439
05:49:47 4 990 27 4 NO 0 88.3 439
05:52:51 4 989 36 2 SO 0 88.8 440
05:55:47 4 990 46 5 S 0 88.8 439
05:58:48 4 989 58 3 O 0 89 439
06:01:47 4 990 70 3 NO 0 89.1 433
06:04:49 4 990 82 3 SO 0 89.2 439
06:07:47 4 989 92 1 NO 0 89.2 442
06:10:48 4 990 102 4 SO 0 89.5 450
06:13:46 4 989 111 3 N 0 89.8 451
06:16:47 4 990 119 4 N 0 89.7 445
06:19:45 4 990 127 5 N 0 89.7 445
06:22:44 4 991 133 3 0 89.9 443
06:25:45 4 989 139 5 NO 0 89.5 447
06:28:47 5 989 144 5 N 0 89.4 445
06:31:51 5 990 149 4 SO 0 89 446
06:34:48 5 989 153 2 N 0 89 442
06:37:48 5 989 157 4 NO 0 87.5 442
06:40:49 5 989 160 4 NO 0 87.6 439
06:43:48 5 990 163 1 NO 0 87.9 440
06:46:48 5 989 166 3 N 0 88 441
06:49:47 5 989 168 5 O 0 88 439
06:52:48 5 989 170 6 W 0 88.1 444
06:55:45 5 990 172 2 O 0 87.8 440
06:58:47 5 990 174 1 NO 0 87.8 443
07:01:46 5 990 175 0 SO 0 87.6 442
07:04:49 6 989 177 0 NO 0 87.8 451
07:07:31 4 990 178 4 O 0 80.6 448
07:10:47 7 990 180 2 O 0 81.3 451
07:13:49 7 990 181 0 NW 0 80.5 452
07:16:45 8 990 182 7 O 0 77.4 453
07:19:50 8 990 183 6 NO 0 76.1 448
07:22:47 8 990 184 3 SW 0 74.7 446
07:25:46 8 990 185 4 N 0 74.2 442
07:28:48 8 990 185 1 SO 0 73.8 447
07:31:49 7 990 186 2 NO 0 73.5 445
07:34:30 7 990 187 9 N 0 66.5 448
07:37:46 7 989 188 4 NO 0 78.1 448
07:40:46 6 989 189 3 0 79.3 445
07:43:47 6 990 190 9 O 0 79.9 448
07:46:46 6 990 191 7 N 0 80.1 442
07:49:48 7 990 190 1 N 0 80.2 433
07:52:45 7 990 190 5 0 80.3 437
07:55:47 7 990 190 3 SO 0 80.3 436
07:58:46 7 990 189 6 N 0 80.3 439
08:01:48 7 990 188 7 NO 0 80.3 436
08:04:50 7 991 190 6 SW 0 80.7 436
08:07:49 7 990 195 4 SW 0 80.8 439
08:10:50 7 990 200 6 O 0 80.7 436
08:13:46 7 990 205 1 NO 0 80.2 431
08:16:49 7 990 205 6 NO 0 79.5 431
08:19:48 8 990 206 10 N 0 78.2 444
08:22:46 8 989 205 12 N 0 77.7 445
08:25:50 8 990 205 6 SO 0 77.1 448
08:28:47 8 989 206 6 O 0 77.3 441
08:31:48 8 990 207 4 NW 0 77.1 442
08:34:49 8 989 211 6 W 0 76.8 443
08:37:48 9 989 212 4 O 0 74.8 440
08:40:49 9 990 212 3 N 0 74 436
08:43:50 9 990 210 5 NO 0 73.5 433
08:46:48 8 988 210 10 SO 0 73.3 431
08:49:46 8 989 212 5 0 74.1 436
08:52:47 8 989 213 9 O 0 74.3 440
08:55:49 9 989 214 2 N 0 74 439
08:58:51 9 990 215 6 NW 0 73.1 439
09:01:47 9 989 212 9 N 0 72.7 436
09:04:48 9 989 214 7 NO 0 72.3 433
09:07:46 9 990 215 5 N 0 72.8 441
09:10:54 9 989 214 9 N 0 72.4 442
09:13:47 10 990 212 9 O 0 71.2 439
09:16:49 10 989 214 4 NO 0 70.8 431
09:19:48 10 989 213 8 SO 0 70.7 427
09:22:50 10 989 212 1 SW 0 69.9 436
09:25:47 10 989 206 6 O 0 69.4 445
09:28:48 9 990 204 6 N 0 70 446
09:31:46 9 989 207 6 0 70.4 443
09:34:47 9 989 206 2 N 0 70.5 439
09:37:48 10 990 205 14 O 0 71.5 436
09:40:49 10 989 206 5 SO 0 71.8 428
09:43:51 10 989 206 8 NW 0 70.6 434
09:46:45 9 989 207 4 O 0 63.4 436
09:49:51 10 989 208 2 NW 0 70 439
09:52:49 10 989 208 7 SO 0 69.8 439
09:55:50 10 989 208 9 NW 0 69.9 440
09:58:46 10 989 207 4 NO 0 70.4 436
10:01:49 10 989 207 3 S 0 69.9 427
10:04:48 10 989 207 11 0 70.5 428
10:07:46 10 989 207 5 N 0 70.8 427
10:10:47 10 989 207 1 NO 0 71 431
10:13:47 10 989 208 10 N 0 72 434
10:16:49 10 989 207 8 NW 0 71.6 436
10:19:47 10 989 208 4 NO 0 71.7 440
10:22:47 10 989 208 5 O 0 71.8 444
10:25:47 10 989 208 9 N 0 71.5 440
10:28:47 10 989 208 8 NO 0 71.3 433
10:31:50 10 989 208 2 NO 0 72 430
10:34:47 10 988 208 7 N 0 72 428
10:37:47 10 989 208 8 N 0 71.3 430
10:40:49 10 989 209 11 SW 0 70.8 433
10:43:45 10 989 209 8 N 0 70.5 434
10:46:46 10 988 209 8 N 0 70.8 437
10:49:50 10 988 210 9 N 0 70.9 436
10:52:46 11 989 210 15 NO 0 71.1 434
10:55:48 11 989 210 4 N 0 69.7 431
10:58:48 11 988 210 9 SW 0 69.4 433
11:01:46 11 989 211 4 N 0 68.7 436
11:04:47 11 989 210 4 O 0 68 446
11:07:47 11 989 211 7 NO 0 68.1 433
11:10:45 12 989 211 14 N 0 67.6 436
11:13:47 12 989 211 4 NO 0 69 437
11:16:48 12 989 211 12 N 0 68.2 439
11:19:48 12 989 211 17 NW 0 67.3 436
11:22:49 12 988 212 10 O 0 68.1 428
11:25:49 12 989 212 8 NO 0 68.4 428
11:28:49 12 989 212 14 NO 0 67.3 431
11:31:46 12 989 212 4 NO 0 67.4 436
11:34:47 12 989 213 6 SO 0 67.5 431
11:37:48 12 988 213 14 NW 0 66.3 433
11:40:48 12 989 214 7 NO 0 66.6 430
11:43:49 12 988 214 10 SO 0 67 432
11:46:49 12 988 215 11 NW 0 67.4 428
11:49:48 12 988 215 13 N 0 67.5 433
11:52:50 12 989 215 12 NO 0 67 430
11:55:47 12 988 216 11 N 0 66.2 436
11:58:49 12 989 216 6 W 0 66.4 439
12:01:47 12 989 216 5 S 0 66.3 434
12:04:47 12 989 216 8 NO 0 65.5 430
12:07:48 13 989 217 14 S 0 66 436
12:10:48 13 989 217 9 NW 0 64.9 428
12:13:47 13 989 218 8 N 0 64.9 425
12:16:48 13 989 218 14 NW 0 64.2 427
12:19:49 13 988 218 22 N 0 62.9 439
12:22:48 14 989 218 9 N 0 63.6 436
12:25:50 14 989 218 4 NO 0 62.7 427
12:28:47 14 989 219 8 NW 0 61.5 424
12:31:53 14 989 219 3 NW 0 62 422
12:34:50 14 988 219 8 SW 0 60.6 424
12:37:48 14 988 220 9 NO 0 60.4 428
12:40:48 14 988 220 8 N 0 60 428
12:43:49 14 989 221 15 NO 0 60.8 430
12:46:48 14 988 221 2 SW 0 60.1 427
12:49:49 14 989 222 11 N 0 60.3 427
12:52:48 14 989 221 13 N 0 60.2 424
12:55:48 14 989 223 10 O 0 61.3 427
12:58:47 14 989 225 7 SW 0 61.7 434
13:01:47 14 989 228 5 NO 0 60.1 431
13:04:48 14 989 228 11 NW 0 60 428
13:07:47 15 989 228 11 NW 0 60.4 430
13:10:47 15 989 227 15 N 0 59.1 430
13:13:45 15 989 225 6 0 59.3 431
13:16:46 15 989 224 5 S 0 58.9 433
13:19:47 15 988 224 7 W 0 59.1 436
13:22:47 15 989 225 8 W 0 59.6 433
13:25:48 15 988 225 14 N 0 57.8 433
13:28:48 15 988 226 8 SO 0 57.7 435
13:31:48 15 989 226 6 NO 0 58.9 427
13:34:49 15 989 226 9 N 0 59.1 431
13:37:51 15 988 226 7 NW 0 58.2 433
13:40:48 15 989 227 5 NO 0 58.6 430
13:43:48 15 988 228 15 NO 0 57.4 430
13:46:47 15 989 229 12 W 0 57.7 425
13:49:46 15 988 230 6 N 0 57.7 427
13:52:46 15 988 231 6 W 0 57.9 430
13:55:49 15 988 232 10 N 0 58.3 431
13:58:49 16 988 233 13 NW 0 56.9 422
14:01:50 16 989 234 14 N 0 56.8 424
14:04:49 15 988 235 6 O 0 57.2 425
14:07:46 15 988 233 4 N 0 56.9 422
14:10:47 15 989 229 7 NO 0 56.9 422
14:13:49 15 988 232 13 SO 0 57.6 421
14:16:47 15 989 232 23 S 0 58.6 416
14:19:46 14 989 233 8 NO 0 58.8 419
14:22:47 14 989 232 9 W 0 59.2 424
14:25:47 14 989 230 15 SW 0 59.7 424
14:28:47 14 988 229 5 0 60.5 428
14:31:47 15 988 231 8 N 0 60.1 430
14:34:48 15 988 242 6 N 0 59.1 440
14:37:49 15 988 235 18 NW 0 58.7 431
14:40:50 15 988 234 9 NW 0 57.1 428
14:43:49 15 988 232 5 NO 0 57.2 428
14:46:47 15 988 231 14 W 0 57.5 427
14:49:48 15 989 235 10 W 0 58.5 427
14:52:48 15 988 236 11 NW 0 58.5 424
14:55:47 15 988 231 8 W 0 58.8 421
14:58:49 15 988 229 12 N 0 58 422
15:01:49 15 988 230 15 N 0 58.2 427
15:04:49 15 988 237 16 N 0 58.5 425
15:07:48 15 988 229 7 NW 0 58.2 430
15:10:47 15 988 227 7 0 58 427
15:13:48 15 988 233 5 N 0 58.2 421
15:16:48 15 988 235 10 O 0 58.2 416
15:19:47 15 988 232 9 N 0 58.8 418
15:22:48 15 988 238 11 N 0 57.6 424
15:25:48 15 988 245 10 N 0 56.9 433
15:28:49 15 987 236 19 W 0 56.5 436
15:31:47 15 988 245 6 N 0 57.1 427
15:34:51 16 988 238 8 NW 0 54.6 425
15:37:47 16 988 239 5 N 0 54.8 418
15:40:49 16 988 235 8 O 0 54.8 425
15:43:49 16 988 235 5 N 0 55.4 434
15:46:50 15 988 246 6 NW 0 55.4 439
15:49:45 16 988 243 15 N 0 55.1 436
15:52:49 16 988 234 7 NO 0 53.7 427
15:55:48 15 988 231 9 N 0 53.6 422
15:58:47 15 988 229 14 N 0 53.9 422
16:01:47 15 988 227 4 NO 0 55.4 422
16:04:48 15 989 224 7 O 0 55.2 424
16:07:49 15 988 225 10 NO 0 55.3 421
16:10:50 15 988 226 11 NO 0 55.3 415
16:13:50 15 988 227 7 N 0 54.4 416
16:16:48 15 988 229 6 SO 0 54 415
16:19:48 15 988 231 11 O 0 55.1 419
16:22:47 15 988 236 16 O 0 54.8 422
16:25:49 15 988 237 11 NW 0 55.2 421
16:28:50 16 987 237 6 SO 0 55 419
16:31:48 16 987 236 3 NO 0 54.8 422
16:34:50 16 988 232 12 NW 0 53.8 427
16:37:49 16 988 231 12 N 0 54.1 428
16:40:46 16 988 243 7 N 0 53 422
16:43:47 16 987 228 7 N 0 52.9 422
16:46:46 15 988 224 8 0 53.1 419
16:49:48 15 988 220 12 N 0 52.8 418
16:52:47 15 988 218 5 NO 0 53.3 421
16:55:46 15 988 218 6 0 53.7 421
16:58:47 15 988 219 10 O 0 53.8 424
17:01:48 15 987 219 7 NO 0 52.9 416
17:04:46 15 988 218 7 0 53.7 416
17:07:49 15 988 218 6 NW 0 54.3 413
17:10:49 15 988 214 7 NW 0 54.1 419
17:13:47 15 988 213 8 N 0 53.6 422
17:16:48 15 988 213 3 NO 0 54.5 424
17:19:47 15 988 211 5 N 0 54.5 422
17:22:46 15 988 209 2 O 0 54.7 425
17:25:47 15 988 212 6 N 0 54.7 422
17:28:47 15 988 211 8 NW 0 54.3 421
17:31:47 15 988 209 4 O 0 54 419
17:34:46 15 988 210 7 N 0 53.3 419
17:37:50 15 988 209 4 NW 0 53.5 425
17:40:49 15 988 205 5 NO 0 54.1 422
17:43:48 15 988 202 10 N 0 54.3 418
17:46:46 15 988 201 4 N 0 54.3 419
17:49:47 15 988 201 4 N 0 54 423
17:52:45 14 988 200 5 N 0 54.2 422
17:55:46 14 987 198 2 NO 0 54.1 424
17:58:46 14 988 196 5 O 0 54 422
18:01:48 14 988 194 6 NO 0 54.1 423
18:04:48 14 988 191 2 N 0 54.2 417
18:07:47 14 988 188 6 NO 0 54.3 419
18:10:47 14 988 188 9 NO 0 54.3 421
18:13:47 14 988 185 12 N 0 54.4 418
18:16:49 14 988 182 6 SO 0 53.8 420
18:19:49 14 988 183 6 N 0 54 419
18:22:47 14 988 183 4 O 0 53.8 418
18:25:50 14 989 183 7 O 0 52.9 419
18:28:47 14 988 182 4 NO 0 52.8 419
18:31:48 14 988 184 7 NO 0 52.8 424
18:34:47 14 987 185 16 N 0 53.1 425
18:37:48 14 988 184 15 N 0 52.6 422
18:40:46 14 988 183 4 NW 0 53.1 419
18:43:47 14 988 183 5 NO 0 53.2 421
18:46:48 14 988 183 7 NO 0 53.1 422
18:49:48 14 989 181 9 NW 0 53 431
18:52:49 14 988 180 11 NO 0 53.5 424
18:55:46 14 988 180 2 N 0 53.4 422
18:58:47 14 988 181 5 O 0 53.6 419
19:01:47 14 988 180 5 NO 0 52.7 424
19:04:47 14 989 178 5 N 0 52.9 427
19:07:49 14 988 179 6 N 0 53.1 428
19:10:50 14 988 178 6 NW 0 52.8 419
19:13:46 14 988 178 6 O 0 53.2 424
19:16:47 14 989 180 4 0 53.2 422
19:19:49 14 988 181 6 N 0 53.5 419
19:22:46 14 988 181 6 O 0 53.9 419
19:25:48 14 988 181 4 NO 0 54.5 415
19:28:49 14 989 180 4 N 0 55 420
19:31:47 14 988 176 9 NO 0 55.3 416
19:34:46 14 988 171 4 N 0 55.1 419
19:37:48 13 989 168 7 N 0 56 416
19:40:49 13 988 166 5 N 0 56.2 421
19:43:49 13 989 165 6 NO 0 56.7 419
19:46:46 13 989 164 4 O 0 57 421
19:49:46 13 989 158 5 N 0 57.2 422
19:52:48 13 990 158 5 NO 0 57.8 424
19:55:48 13 988 158 6 NO 0 58.2 424
19:58:48 13 989 153 4 O 0 58.1 421
20:01:48 13 989 146 2 N 0 58.3 415
20:04:50 13 989 143 3 NO 0 58.8 419
20:07:47 13 989 139 7 N 0 59.4 424
20:10:47 13 988 135 5 N 0 59.8 424
20:13:50 12 989 130 4 NO 0 60.1 422
20:16:48 12 989 124 5 NO 0 60.7 424
20:19:50 12 989 117 4 NO 0 61.2 425
20:22:46 12 989 108 6 0 61.6 430
20:25:48 12 990 99 2 O 0 62 424
20:28:48 12 989 88 5 N 0 62.7 424
20:31:48 12 989 78 8 NO 0 63.2 424
20:34:47 12 990 67 8 O 0 63.6 431
20:37:47 12 990 55 2 W 0 64.3 425
20:40:45 11 990 44 4 O 0 64.9 424
20:43:47 11 990 33 3 SO 0 65.7 424
20:46:48 11 990 24 11 N 0 66.2 422
20:49:47 11 990 17 5 N 0 67.4 424
20:52:44 11 990 12 5 N 0 67.7 431
20:55:45 11 989 7 4 N 0 67.9 431
20:58:47 11 989 5 7 NO 0 68.2 434
21:01:50 11 990 3 5 S 0 68.7 430
21:04:48 11 990 0 9 N 0 69.2 427
21:07:47 11 990 0 9 N 0 69.8 430
21:10:45 11 990 0 6 S 0 70 424
21:13:45 11 990 0 2 N 0 70.2 424
21:16:46 11 991 0 5 O 0 70.7 422
21:19:46 11 991 0 6 NO 0 70.9 416
21:22:46 10 991 0 4 NW 0 70.7 424
21:25:48 10 990 0 10 NW 0 70.7 425
21:28:49 10 990 0 5 SO 0 70.8 427
21:31:45 10 991 0 7 NO 0 71 427
21:34:46 10 991 0 7 N 0 71.6 427
21:37:45 10 991 0 10 W 0 71.8 431
21:40:46 10 991 0 4 SO 0 72.2 427
21:43:45 10 991 0 7 NO 0 72.7 429
21:46:47 10 990 0 9 N 0 72.9 424
21:49:45 10 990 0 6 0 72.9 424
21:52:45 10 991 0 6 N 0 73.4 422
21:55:47 10 991 0 5 N 0 73.7 427
21:58:45 10 991 0 7 NW 0 74.1 425
22:01:47 10 990 0 7 N 0 74.7 425
22:04:44 10 991 0 1 S 0 74.9 427
22:07:46 10 991 0 1 N 0 74.7 430
22:10:46 10 991 0 5 NO 0 75.2 433
22:13:47 10 991 0 6 W 0 75.2 438
22:16:48 10 990 0 10 NW 0 75.5 439
22:19:45 9 991 0 7 NO 0 76.1 442
22:22:47 9 991 0 7 NO 0 76.4 437
22:25:48 9 991 0 2 NO 0 76.7 429
22:28:48 9 991 0 2 NW 0 77.2 434
22:31:48 9 991 0 4 W 0 78 434
22:34:44 9 991 0 3 O 0 78.8 440
22:37:44 9 991 0 4 O 0 79.5 434
22:40:45 9 991 0 3 NW 0 79.6 434
22:43:46 9 991 0 7 O 0 80.1 431
22:46:46 9 991 0 6 SO 0 80.8 423
22:49:48 9 991 0 5 NW 0 81.5 438
22:52:47 9 991 0 14 W 0 81.8 442
22:55:47 9 991 0 6 NO 0 82.6 439
22:58:46 8 991 0 3 N 0 82.7 442
23:01:44 8 991 0 12 N 0 83.4 433
23:04:45 8 991 0 9 N 0 84.1 433
23:07:46 8 991 0 5 S 0 84.2 427
23:10:47 8 991 0 4 NO 0 84.8 427
23:13:46 8 991 0 5 O 0 85 425
23:16:48 8 991 0 5 NW 0 85.4 433
23:19:46 8 991 0 2 0 85.7 434
23:22:47 8 991 0 4 NO 0 85.8 434
23:25:45 8 991 0 0 O 0 86.6 430
23:28:45 8 991 0 6 NO 0 86.7 433
23:31:47 8 991 0 5 N 0 87.1 436
23:34:48 8 991 0 5 NO 0 87.8 439
23:37:46 8 991 0 0 N 0 88 436
23:40:47 8 991 0 3 W 0 87.8 434
23:43:47 7 991 0 2 NW 0 87.6 428
23:46:44 7 991 0 4 NW 0 87.4 433
23:49:44 7 991 0 2 O 0 87.9 431
23:52:45 7 991 0 2 S 0 88.8 442
23:55:45 7 991 0 1 O 0 88.7 442
23:58:46 7 991 0 0 O 0 88.6 439

Letzte Änderung : 04-Jan-2022
Copyright Jens Köhler, Wolfsburg, Obere Dorfstraße 10d